Total_Precipitation_Accumulation
1.08 0.74 0.52 0.28 0.21 0.24 0.29 0.24 0.29 0.31 0.27 0.29 0.31 0.25 0.21 0.16 0.13 0.21 0.28 0.52 0.41 0.56 0.62 0.55 0.67 0.79 0.92 1.15 1.16 0.96 0.70 0.62 0.51 0.61 0.66 0.58 0.40 0.37 0.41 0.37 0.27 0.22 0.23
0.93 0.55 0.44 0.41 0.45 0.42 0.29 0.25 0.27 0.24 0.36 0.59 0.62 0.48 0.28 0.17 0.16 0.16 0.16 0.38 0.52 0.43 0.43 0.56 0.50 0.63 0.73 0.72 1.02 1.42 1.45 1.22 1.29 0.99 0.84 0.61 0.57 0.52 0.42 0.35 0.34 0.36 0.33
0.87 0.63 0.45 0.35 0.33 0.40 0.56 0.61 0.49 0.35 0.29 0.35 0.61 0.44 0.31 0.21 0.23 0.16 0.13 0.21 0.47 0.57 0.39 0.39 0.52 0.57 0.71 0.87 1.00 1.02 1.14 1.24 1.15 0.82 0.60 0.52 0.56 0.52 0.66 0.50 0.43 0.45 0.40
0.83 0.80 0.61 0.34 0.29 0.48 0.73 0.88 0.64 0.33 0.29 0.30 0.31 0.20 0.12 0.14 0.17 0.18 0.18 0.11 0.14 0.32 0.47 0.34 0.34 0.36 0.46 0.55 0.57 0.98 1.56 1.15 0.81 0.58 0.53 0.55 0.52 0.53 0.58 0.67 0.66 0.70 0.72
1.17 0.76 0.66 0.41 0.41 0.36 0.51 0.84 0.83 0.69 0.46 0.29 0.29 0.29 0.13 0.08 0.12 0.16 0.18 0.19 0.17 0.16 0.26 0.38 0.36 0.34 0.36 0.45 0.56 0.79 1.12 1.21 1.29 1.28 1.08 1.04 1.09 0.95 0.88 0.97 0.91 0.86 1.16
1.49 1.06 0.78 0.61 0.61 0.69 0.59 0.57 0.74 0.74 0.75 0.65 0.61 0.50 0.30 0.17 0.16 0.17 0.18 0.19 0.26 0.31 0.23 0.30 0.32 0.30 0.44 0.68 0.79 0.93 1.43 1.96 2.13 2.30 2.57 2.35 1.58 1.23 1.20 1.01 0.79 0.76 0.88
1.20 1.42 0.95 0.64 0.61 0.68 0.74 0.95 0.92 0.82 0.55 0.77 1.18 0.98 0.71 0.36 0.27 0.20 0.20 0.20 0.23 0.26 0.32 0.37 0.31 0.25 0.25 0.36 0.44 0.62 0.77 0.89 0.92 1.24 1.71 1.95 2.23 1.86 1.25 0.98 1.00 0.90 0.77
1.24 1.28 1.21 1.08 0.71 0.70 0.80 1.22 1.26 1.23 0.74 1.05 1.31 1.42 1.11 0.93 0.52 0.37 0.31 0.32 0.28 0.34 0.34 0.39 0.39 0.32 0.24 0.25 0.27 0.44 0.83 1.07 1.18 1.16 1.10 1.40 1.49 1.77 1.71 1.48 1.30 1.13 1.10
1.10 1.33 1.09 1.34 1.21 1.21 1.05 1.21 1.43 1.23 0.83 0.97 1.14 1.25 1.26 1.04 0.76 0.67 0.56 0.45 0.44 0.38 0.38 0.40 0.55 0.56 0.44 0.35 0.47 0.52 0.62 0.81 1.06 1.35 1.56 1.77 2.02 2.19 2.10 1.75 1.34 1.19 1.06
1.08 1.23 1.31 1.46 1.46 1.39 1.38 1.27 1.46 1.38 1.32 1.02 1.21 1.01 0.91 0.91 0.97 0.78 0.66 0.64 0.62 0.53 0.51 0.50 0.52 0.60 0.58 0.52 0.55 0.75 0.69 0.53 0.57 0.79 1.09 1.35 1.38 1.36 1.53 1.80 1.79 1.42 1.20
0.81 0.84 1.13 1.29 1.44 1.41 1.35 1.42 1.40 1.51 1.48 1.64 1.66 1.71 1.61 1.48 1.55 1.58 1.23 0.77 0.73 0.73 0.77 0.87 0.98 0.93 0.75 0.71 0.60 0.57 0.67 0.96 1.06 1.00 1.06 1.01 1.25 1.55 1.59 1.42 1.37 1.61 1.66
1.16 0.95 1.03 1.09 1.24 1.36 1.25 1.48 1.57 1.45 1.70 1.80 1.86 2.15 2.24 2.26 2.12 2.12 2.04 1.51 1.05 0.72 0.63 0.72 0.81 0.87 0.94 0.91 0.82 0.75 0.68 0.59 0.81 1.20 1.59 1.48 1.20 1.26 1.50 1.67 1.71 1.48 1.44
2.17 1.71 1.31 1.31 1.44 1.67 1.86 1.83 1.88 1.84 1.66 1.69 1.50 1.46 1.46 1.60 1.88 2.42 2.85 2.61 2.25 1.63 1.36 1.04 0.76 0.66 0.72 0.93 1.00 0.97 0.87 0.83 0.73 0.72 0.97 1.52 1.61 1.55 1.71 1.83 1.79 1.92 1.93
1.40 1.66 1.50 1.25 1.63 2.15 2.25 2.51 2.43 2.26 2.30 2.23 2.17 2.07 1.92 1.67 1.56 1.52 1.88 2.41 2.53 1.74 1.25 0.92 0.79 0.83 0.78 0.67 0.71 0.94 1.00 1.01 0.96 1.07 1.02 0.97 1.20 1.38 1.34 1.44 1.75 1.77 1.73
0.82 1.17 1.49 1.35 1.22 1.54 2.04 2.37 2.32 2.26 2.31 2.23 2.08 1.91 1.54 1.27 1.25 1.18 1.14 1.20 1.63 1.70 1.39 0.86 0.61 0.45 0.46 0.61 0.78 1.00 1.04 1.03 1.09 1.06 1.22 1.52 1.32 1.32 1.66 1.74 1.67 1.66 1.68
0.81 1.20 1.50 1.86 1.86 1.48 1.48 2.06 2.17 2.09 2.00 1.77 1.90 1.85 1.55 1.24 1.17 1.07 1.15 1.11 1.06 1.23 1.26 0.81 0.75 0.55 0.51 0.45 0.47 0.57 0.85 1.19 1.05 0.94 0.92 1.16 1.57 1.54 1.29 1.56 1.85 1.92 1.96
1.05 1.31 1.69 2.20 2.72 2.42 2.06 1.88 1.89 1.84 1.69 1.56 1.74 1.78 1.63 1.69 1.80 1.49 1.38 1.46 1.34 1.41 1.40 0.89 0.85 0.94 0.89 0.67 0.54 0.61 0.71 0.88 1.00 0.92 0.72 0.79 1.12 1.59 1.73 1.55 1.48 1.78 2.20
1.28 1.55 1.88 2.29 2.62 2.88 2.70 2.41 2.06 1.85 1.84 1.59 1.52 1.85 1.73 1.87 2.11 1.95 1.85 1.59 1.47 1.33 1.66 1.33 1.23 1.36 1.60 1.46 1.04 0.77 0.59 0.59 0.74 1.03 0.90 0.65 0.62 0.86 1.42 1.72 1.74 1.60 1.68
1.84 1.89 1.94 2.06 2.21 2.30 2.59 2.38 1.90 1.55 1.56 1.50 1.32 1.32 1.37 1.63 1.65 1.70 1.79 1.58 1.53 1.76 2.05 1.84 1.55 1.38 1.32 1.33 1.25 1.16 0.93 0.63 0.57 0.98 1.00 1.13 1.00 0.76 0.79 1.10 1.48 1.64 1.55
1.72 1.45 1.41 1.41 1.15 1.15 1.55 1.82 1.91 1.92 1.80 1.71 1.64 1.55 1.39 1.57 1.52 1.68 2.01 2.17 2.13 2.23 2.22 1.91 1.81 1.64 1.39 1.20 1.27 1.33 1.41 1.27 1.03 0.96 1.24 1.27 1.25 1.18 0.94 0.83 0.97 1.23 1.57
1.03 0.99 0.90 0.85 0.84 0.99 1.40 1.53 1.67 1.76 2.01 2.06 1.90 1.88 1.91 2.16 2.18 2.06 1.97 1.88 2.12 2.17 2.08 2.43 2.52 2.15 1.84 1.87 1.60 1.42 1.37 1.34 1.40 1.31 1.20 1.24 1.27 1.30 1.38 1.24 1.06 1.13 1.27
0.90 0.79 0.61 0.57 0.56 0.66 1.22 1.47 1.77 1.78 1.91 2.24 2.08 1.82 1.78 2.14 1.96 2.37 2.32 2.39 2.31 2.22 2.20 1.91 1.81 1.85 1.83 1.57 1.88 2.08 2.09 1.82 1.60 1.17 1.43 1.47 1.44 1.46 1.39 1.35 1.46 1.26 1.09
0.54 0.66 0.77 0.61 0.42 0.63 1.18 1.09 1.53 1.50 1.73 2.12 2.18 2.12 2.22 2.52 2.48 2.03 2.44 2.44 2.65 2.60 2.25 2.09 2.03 1.54 1.67 1.51 1.56 2.02 1.73 1.47 1.37 1.02 1.40 1.80 1.71 1.82 1.59 1.78 2.00 1.61 1.46
0.49 0.47 0.60 1.00 1.38 1.24 1.28 1.09 1.26 1.10 1.24 1.70 1.98 2.11 2.30 2.43 2.42 2.23 2.31 2.54 2.26 2.07 1.97 1.87 1.77 1.55 1.35 1.38 1.80 1.94 2.27 2.57 2.09 1.60 1.86 2.27 1.55 1.58 1.51 1.49 1.89 1.92 1.84
0.84 0.80 0.76 0.81 0.85 1.15 1.45 0.88 0.70 0.72 0.83 0.88 1.13 1.53 1.86 2.13 2.78 2.45 2.35 2.56 2.36 2.07 2.16 2.26 2.21 1.89 2.06 2.15 2.02 2.51 2.58 2.54 2.44 1.58 1.28 1.58 1.33 1.44 1.63 1.67 1.67 1.74 1.90
0.88 0.98 1.03 0.77 0.75 0.54 0.98 0.82 0.53 0.36 0.68 0.70 0.71 1.01 1.52 1.50 1.83 1.76 1.77 1.79 2.00 1.89 1.72 1.76 1.98 2.26 2.14 2.31 2.25 2.16 2.45 2.65 2.27 2.38 1.38 1.48 1.15 1.17 1.88 1.56 1.46 1.64 1.67